User: anonymous
Location: Blue Mountain Vista Observatory
(40.6992°N, 75.9422°W)
Time: 05:26:35
(UTC-04:00)
Language:

Cosmos 1151 - Orbit

View from above orbital plane
View from above orbital plane
View from above satellite
View from above satellite

Ground track
Ground track

The orbit data is extracted from the following two-line orbital elements,

1 11671U 80005A   14211.67841715  .00808761 -11931-5  44986-3 0  5909
2 11671 082.4478 268.0392 0009422 230.5701 129.4075 16.19327547895157
Epoch (UTC): 30 July 2014 16:16:55
Eccentricity: 0.0009422
inclination: 82.4478°
perigee height: 215 km
apogee height: 227 km
right ascension of ascending node: 268.0392°
argument of perigee: 230.5701°
revolutions per day: 16.19327547
mean anomaly at epoch: 129.4075°
orbit number at epoch: 89515

The dashed part of the orbit path shows where the satellite is in the earth's shadow,  

DLR